Voltar ao catálogo

STARLINK-3872

AtivoComunicaçõesVLEO
NORAD 52453·PAYLOAD·🇺🇸 United States

Lançado May 6, 2022 de Cape Canaveral Space Force Station

Loading…

Próximas Passagens (próximas 24 horas)

TLE

AtualizadoSource: CelesTrak SupGP

Época: Sep 14, 2026, 13:02 UTC

1 52453C 22049C   26257.54354167  .00021987  00000+0  62905-3 0  2571
2 52453  53.1602 297.4471 0001273  76.4855  93.8025 15.35388924    16

Acompanhe STARLINK-3872 em tempo real com AllMySat

Download on the App Store